Probability
0 0 0 0 0 0 0 0 0 0 0 0 0 0 0 0 0 0 0 0 0 0 0 0 0 0 0 0 0 0 0 0 0 0 0 0 0 0 0 0 0 0 0
0 0 0 0 0 0 0 0 0 0 0 0 0 0 0 0 0 0 0 0 0 0 0 0 0 0 0 0 0 0 0 0 0 0 0 0 0 0 0 0 0 0 0
0 0 0 0 0 0 0 0 0 0 0 0 0 0 0 0 0 0 0 0 0 0 0 0 0 0 0 0 0 0 0 0 0 0 0 0 0 0 0 0 0 0 0
0 0 0 0 0 0 0 0 0 0 0 0 0 0 0 0 0 0 0 0 0 0 0 0 0 0 0 0 0 0 0 0 0 0 0 0 0 0 0 0 0 0 0
0 0 0 0 0 0 0 0 0 0 0 0 0 0 0 0 0 0 0 0 0 0 0 0 0 0 0 0 0 0 0 0 0 0 0 0 0 0 0 0 0 0 0
0 0 0 0 0 0 0 0 0 0 0 0 0 0 0 0 0 0 0 0 0 0 0 0 0 0 0 0 0 0 0 0 0 0 0 0 0 0 0 0 0 0 0
0 0 0 0 0 0 0 0 0 0 0 0 0 0 0 0 0 0 0 0 0 0 0 0 0 0 0 0 0 0 0 0 0 0 0 0 0 0 0 0 0 0 0
0 0 0 0 0 0 0 0 0 0 0 0 0 0 0 0 0 0 0 0 0 0 0 0 0 0 0 0 0 0 0 0 0 0 0 0 0 0 0 0 0 0 0
0 0 0 0 0 0 0 0 0 0 0 0 0 0 0 0 0 0 0 0 0 0 0 0 0 0 0 0 0 0 0 0 0 0 0 0 0 0 0 0 0 0 0
0 0 0 0 0 0 0 0 0 0 0 0 0 0 0 0 0 0 0 0 0 0 0 0 0 0 0 0 0 0 0 0 0 0 0 0 0 0 0 0 0 0 0
0 0 0 0 0 0 0 0 0 0 0 0 0 0 0 0 0 0 0 0 0 0 0 0 0 0 0 0 0 0 0 0 0 0 0 0 0 0 0 0 0 0 0
0 0 0 0 0 0 0 0 0 0 0 0 0 0 0 0 0 0 0 0 0 0 0 0 0 0 0 0 0 0 0 0 0 0 0 0 0 0 0 0 0 0 0
0 0 0 0 0 0 0 0 0 0 0 0 0 0 0 0 0 0 0 0 0 0 0 0 0 0 0 0 0 0 0 0 0 0 0 0 0 0 0 0 0 0 0
0 0 0 0 0 0 0 0 0 0 0 0 0 0 0 0 0 0 0 0 0 0 0 0 0 0 0 0 0 0 0 0 0 0 0 0 0 0 0 0 0 0 0
0 0 0 0 0 0 0 0 0 0 0 0 0 0 0 0 0 0 0 0 0 0 0 0 0 0 0 0 0 0 0 0 0 0 0 0 0 0 0 0 0 0 0
0 0 0 0 0 0 0 0 0 0 0 0 0 0 0 0 0 0 0 0 0 0 0 0 0 0 0 0 0 0 0 0 0 0 0 0 0 0 0 0 0 0 0
0 0 0 0 0 0 0 0 0 0 0 0 0 0 0 0 0 0 0 0 0 0 0 0 0 0 0 0 0 0 0 0 0 0 0 0 0 0 0 0 0 0 0
0 0 0 0 0 0 0 0 0 0 0 0 0 0 0 0 0 0 0 0 0 0 0 0 0 0 0 0 0 0 0 0 0 0 0 0 0 0 0 0 0 0 0
0 0 0 0 0 0 0 0 0 0 0 0 0 0 0 0 0 0 0 0 0 0 0 0 0 0 0 0 0 0 0 0 0 0 0 0 0 0 0 0 0 0 0
0 0 0 0 0 0 0 0 0 0 0 0 0 0 0 0 0 0 0 0 0 0 0 0 0 0 0 0 0 0 0 0 0 0 0 0 0 0 0 0 0 0 0
0 0 0 0 0 0 0 0 0 0 0 0 0 0 0 0 0 0 0 0 0 0 0 0 0 0 0 0 0 0 0 0 0 0 0 0 0 0 0 0 0 0 0
0 0 0 0 0 0 0 0 0 0 0 0 0 0 0 0 0 0 0 0 0 0 0 0 0 0 0 0 0 0 0 0 0 0 0 0 0 0 0 0 0 0 0
0 0 0 0 0 0 0 0 0 0 0 0 0 0 0 0 0 0 0 0 0 0 0 0 0 0 0 0 0 0 0 0 0 0 0 0 0 0 0 0 0 0 0
0 0 0 0 0 0 0 0 0 0 0 0 0 0 0 0 0 0 0 0 0 0 0 0 0 0 0 0 0 0 0 0 0 0 0 0 0 0 0 0 0 0 0
0 0 0 0 0 0 0 0 0 0 0 0 0 0 0 0 0 0 0 0 0 0 0 0 0 0 0 0 0 0 0 0 0 0 0 0 0 0 0 0 0 0 0
0 0 0 0 0 0 0 0 0 0 0 0 0 0 0 0 0 0 0 0 0 0 0 0 0 0 0 0 0 0 0 0 0 0 0 0 0 0 0 0 0 0 0
Height
5680 5681 5682 5683 5684 5685 5686 5687 5688 5688 5689 5690 5690 5690 5690 5691 5690 5690 5690 5689 5688 5688 5687 5686 5685 5683 5681 5680 5678 5676 5673 5671 5669 5667 5664 5661 5657 5654 5651 5648 5645 5641 5638
5673 5673 5674 5675 5675 5676 5677 5678 5678 5679 5679 5679 5679 5679 5679 5679 5679 5678 5678 5677 5676 5675 5674 5673 5671 5670 5668 5666 5664 5662 5659 5657 5654 5652 5649 5645 5642 5638 5635 5632 5628 5624 5621
5665 5665 5666 5666 5667 5667 5667 5668 5668 5668 5668 5668 5668 5668 5668 5668 5667 5666 5665 5664 5663 5662 5661 5660 5658 5656 5654 5652 5650 5647 5644 5641 5639 5636 5633 5630 5626 5622 5618 5615 5611 5607 5603
5656 5656 5656 5657 5657 5657 5657 5657 5657 5657 5657 5657 5657 5657 5656 5656 5655 5654 5652 5651 5650 5649 5648 5646 5644 5642 5640 5638 5635 5632 5629 5626 5623 5620 5617 5614 5610 5605 5601 5598 5594 5589 5585
5647 5647 5647 5647 5647 5647 5647 5647 5647 5646 5646 5645 5645 5645 5644 5643 5642 5641 5640 5638 5637 5636 5634 5632 5630 5628 5626 5623 5621 5617 5614 5611 5607 5604 5601 5597 5593 5589 5584 5580 5576 5572 5568
5637 5637 5637 5636 5636 5636 5635 5635 5635 5635 5634 5634 5633 5633 5632 5631 5629 5628 5626 5625 5623 5622 5620 5618 5616 5614 5611 5608 5605 5602 5599 5595 5592 5588 5585 5581 5576 5571 5567 5562 5557 5554 5550
5627 5627 5626 5625 5625 5624 5624 5624 5623 5622 5622 5621 5621 5620 5619 5618 5617 5615 5613 5611 5610 5608 5606 5604 5602 5599 5596 5593 5590 5587 5583 5579 5575 5572 5568 5564 5559 5554 5549 5545 5540 5534 5530
5617 5616 5615 5614 5613 5613 5612 5612 5611 5610 5610 5609 5608 5607 5606 5605 5603 5601 5599 5597 5596 5594 5592 5589 5587 5584 5581 5578 5575 5572 5568 5564 5560 5556 5552 5547 5542 5537 5532 5527 5522 5517 5513
5606 5605 5604 5603 5602 5601 5600 5599 5598 5598 5597 5596 5595 5594 5592 5591 5589 5587 5585 5584 5582 5580 5577 5575 5572 5569 5566 5563 5560 5557 5554 5549 5545 5540 5536 5531 5526 5520 5514 5509 5504 5499 5495
5595 5593 5592 5591 5590 5589 5588 5587 5585 5584 5584 5582 5581 5580 5579 5577 5575 5573 5571 5569 5568 5566 5563 5560 5557 5554 5551 5547 5544 5541 5538 5534 5530 5525 5521 5516 5510 5504 5498 5492 5487 5482 5478
5583 5582 5580 5579 5578 5576 5575 5574 5572 5571 5570 5569 5568 5566 5565 5563 5561 5559 5557 5555 5553 5551 5548 5545 5542 5539 5536 5532 5528 5525 5522 5518 5514 5510 5505 5500 5494 5489 5483 5477 5471 5466 5462
5571 5570 5568 5567 5565 5563 5562 5560 5559 5558 5556 5555 5553 5552 5550 5549 5547 5545 5542 5540 5538 5536 5533 5530 5527 5524 5521 5517 5513 5510 5505 5501 5497 5494 5489 5484 5479 5473 5468 5462 5457 5452 5446
5559 5557 5555 5554 5552 5550 5548 5547 5545 5544 5542 5541 5539 5538 5536 5534 5532 5530 5528 5525 5523 5520 5518 5515 5512 5509 5506 5502 5498 5494 5489 5485 5481 5477 5473 5468 5463 5458 5453 5448 5443 5437 5433
5546 5544 5542 5540 5538 5536 5535 5533 5532 5530 5528 5527 5525 5523 5522 5520 5517 5515 5513 5511 5508 5505 5503 5500 5497 5493 5490 5486 5483 5478 5474 5469 5465 5461 5457 5452 5447 5443 5438 5433 5429 5424 5420
5532 5530 5528 5526 5524 5523 5521 5519 5518 5516 5514 5513 5511 5509 5507 5505 5503 5500 5498 5495 5493 5490 5487 5485 5482 5478 5475 5471 5467 5463 5458 5454 5450 5445 5441 5437 5433 5429 5424 5420 5415 5411 5407
5519 5517 5515 5513 5511 5509 5507 5506 5503 5502 5500 5498 5496 5494 5492 5490 5488 5485 5483 5480 5477 5474 5472 5469 5466 5463 5460 5456 5452 5448 5443 5439 5435 5431 5427 5423 5419 5415 5411 5407 5403 5399 5395
5505 5503 5501 5500 5498 5496 5494 5492 5490 5488 5486 5484 5482 5480 5478 5476 5473 5471 5468 5466 5463 5460 5457 5455 5451 5448 5444 5440 5436 5432 5428 5424 5420 5416 5413 5409 5405 5402 5398 5395 5391 5388 5384
5492 5490 5488 5486 5484 5482 5481 5479 5477 5475 5473 5471 5468 5466 5464 5461 5459 5456 5454 5452 5449 5446 5443 5440 5436 5433 5429 5425 5421 5417 5414 5410 5406 5403 5399 5396 5392 5389 5386 5383 5380 5377 5373
5478 5477 5475 5473 5471 5469 5467 5465 5464 5462 5460 5458 5455 5453 5450 5448 5446 5443 5441 5438 5436 5433 5429 5426 5422 5418 5414 5410 5407 5403 5400 5397 5394 5390 5387 5384 5381 5378 5375 5372 5369 5366 5363
5465 5464 5462 5460 5458 5456 5454 5452 5451 5449 5447 5445 5443 5440 5438 5435 5433 5431 5428 5425 5422 5419 5416 5412 5408 5404 5401 5397 5394 5391 5388 5385 5382 5379 5376 5373 5370 5367 5365 5362 5359 5356 5353
5452 5450 5448 5446 5445 5443 5441 5439 5437 5435 5434 5432 5430 5427 5425 5423 5421 5418 5415 5412 5409 5406 5402 5399 5395 5392 5388 5385 5382 5380 5377 5374 5371 5368 5366 5363 5360 5358 5355 5353 5350 5347 5344
5439 5438 5436 5434 5432 5430 5428 5426 5424 5422 5420 5419 5417 5415 5412 5410 5408 5405 5402 5399 5396 5393 5390 5387 5383 5380 5377 5374 5372 5369 5367 5364 5361 5359 5356 5354 5351 5349 5347 5344 5341 5339 5336
5427 5425 5423 5421 5419 5417 5415 5413 5411 5410 5408 5406 5404 5402 5400 5397 5395 5392 5390 5387 5384 5381 5378 5375 5372 5369 5367 5364 5362 5360 5357 5354 5352 5349 5347 5345 5343 5341 5339 5336 5334 5331 5329
5414 5413 5411 5409 5407 5405 5403 5401 5399 5397 5395 5393 5391 5389 5387 5385 5383 5380 5378 5375 5372 5370 5367 5364 5362 5360 5358 5355 5353 5351 5348 5346 5343 5341 5339 5337 5335 5333 5331 5329 5327 5325 5323
5403 5401 5399 5397 5395 5394 5392 5389 5387 5385 5383 5382 5380 5377 5375 5373 5371 5368 5366 5364 5361 5359 5357 5355 5353 5351 5349 5347 5345 5342 5340 5338 5335 5333 5332 5330 5328 5326 5324 5323 5321 5319 5317
5391 5389 5388 5386 5384 5382 5380 5378 5376 5374 5372 5370 5368 5366 5363 5361 5359 5357 5355 5353 5351 5349 5347 5346 5344 5342 5340 5338 5336 5334 5332 5330 5328 5326 5325 5323 5322 5320 5318 5317 5315 5313 5311
Wind_Speed
30 31 32 33 35 36 36 38 39 40 40 42 43 43 43 43 44 45 46 46 47 48 48 48 49 49 49 49 50 51 52 53 54 54 56 57 57 58 58 59 59 60 60
32 32 32 33 35 37 38 38 39 40 41 42 43 43 44 44 45 46 46 47 48 48 49 49 50 51 51 51 51 52 54 55 55 56 57 58 59 59 59 60 61 62 63
32 33 35 36 37 38 38 39 40 41 42 42 42 43 44 44 45 46 47 47 47 48 49 50 50 50 51 52 53 54 55 55 56 57 58 58 59 60 60 61 62 63 65
33 35 36 37 38 38 39 40 41 42 42 42 43 44 44 44 45 46 46 47 47 48 49 50 50 51 52 53 53 54 55 56 57 58 58 59 60 61 62 63 63 64 65
34 35 36 38 39 40 41 42 42 42 43 44 44 45 45 46 46 46 47 47 48 48 49 50 51 52 52 53 54 55 56 57 57 58 59 60 61 62 63 64 65 65 65
35 36 37 38 39 41 41 42 43 44 44 45 45 45 46 46 46 47 47 48 49 49 50 50 51 52 53 54 55 56 57 57 58 58 59 60 60 62 63 64 65 65 65
36 38 38 39 40 40 41 42 43 44 45 45 45 46 47 47 48 48 48 49 50 50 51 51 52 53 54 55 55 56 57 58 58 59 59 59 60 61 63 64 64 65 65
37 38 39 40 40 40 41 42 43 44 45 46 46 47 48 48 48 49 49 50 50 51 51 52 53 53 54 55 55 56 56 57 58 58 58 59 60 61 62 63 64 64 64
37 37 38 39 40 40 40 41 42 44 45 46 46 47 47 48 48 49 50 50 51 51 52 52 53 53 54 54 55 55 56 56 57 58 57 58 58 59 61 62 61 61 60
38 38 39 39 40 40 41 43 43 45 46 46 47 48 48 49 49 50 50 50 51 52 52 52 52 52 53 54 55 55 56 56 57 57 57 58 59 60 60 61 60 59 59
39 39 40 40 41 42 43 44 45 46 47 47 47 48 49 49 49 50 50 50 51 51 51 52 52 53 53 54 55 55 56 56 56 56 57 58 59 59 59 58 58 58 57
40 41 41 42 42 43 43 44 45 46 47 47 47 48 48 49 50 50 51 51 51 51 51 52 52 52 53 54 54 55 55 56 56 56 57 58 57 56 55 54 54 55 54
42 42 43 43 43 44 44 45 45 46 47 47 47 48 49 50 50 50 50 50 51 51 52 52 52 52 53 54 54 55 55 56 56 57 57 56 55 54 53 53 53 52 51
43 43 44 44 45 45 45 45 46 46 47 48 48 49 50 50 50 50 50 50 51 52 51 51 52 53 53 54 54 54 55 56 56 56 55 54 53 52 51 51 50 49 48
43 43 44 44 45 45 45 45 45 46 47 48 48 49 49 49 49 49 50 50 50 50 51 51 52 52 52 53 54 54 54 54 54 53 52 51 50 50 49 48 47 46 46
43 44 44 44 44 44 45 45 45 46 47 47 47 47 47 47 48 48 48 49 49 50 50 51 51 52 52 52 53 53 52 52 52 51 49 49 48 47 46 45 44 43 42
43 44 44 44 43 43 43 43 43 44 44 45 45 45 46 46 47 47 47 48 48 49 49 50 51 51 51 52 51 51 50 50 49 48 47 46 45 43 42 41 41 40 40
42 42 43 43 42 42 42 42 42 42 43 43 43 44 45 45 45 45 45 46 46 47 48 49 49 50 50 49 49 48 47 46 45 44 43 42 41 40 39 39 38 38 38
41 41 41 41 41 41 42 42 42 42 42 42 43 43 43 43 43 43 43 44 45 46 47 47 47 47 47 46 45 44 43 42 41 40 39 38 38 37 37 36 36 36 35
41 41 41 41 41 42 42 42 42 42 42 42 42 42 42 42 42 42 43 44 44 44 45 45 44 44 44 42 40 39 38 38 37 36 36 36 35 35 34 34 34 33 33
40 41 41 41 41 41 42 42 41 41 41 40 40 40 41 41 41 42 43 43 43 43 43 42 42 41 40 38 37 36 35 35 34 33 33 33 33 32 32 31 31 30 29
39 40 40 40 40 40 40 40 40 40 39 39 39 39 40 40 41 41 42 42 42 42 41 40 38 37 35 34 33 33 33 32 32 31 31 31 30 30 29 29 28 27 26
39 39 39 39 39 38 38 38 39 39 38 39 39 39 39 40 40 40 40 40 39 38 37 35 34 33 31 30 30 30 30 29 29 29 29 28 28 27 27 26 26 24 24
37 37 37 37 37 36 36 36 37 37 37 37 37 38 38 38 38 38 37 36 36 35 33 32 31 29 28 28 28 28 28 28 27 26 26 25 24 24 24 23 22 22 22
35 35 35 35 35 35 35 35 35 35 36 36 36 37 36 36 36 35 35 34 33 32 31 29 28 27 27 27 27 27 27 25 24 23 23 22 22 22 21 20 20 20 19
33 33 33 33 34 34 34 34 34 35 35 36 36 36 36 35 35 34 33 32 31 30 28 27 26 26 26 26 26 25 24 23 23 22 21 21 20 19 18 18 18 17 17
Wind_Direction
261 261 260 258 258 259 260 262 263 263 264 264 264 265 266 268 269 270 271 272 273 274 275 276 277 277 278 278 279 279 280 280 281 281 282 282 282 283 283 283 283 283 283
261 260 259 260 260 260 262 263 263 263 264 265 265 266 268 269 270 270 271 272 272 273 274 276 277 277 278 278 280 281 282 282 282 282 282 282 283 283 283 283 283 284 284
262 261 260 261 262 262 264 266 266 266 266 266 267 268 270 271 271 271 272 272 273 274 275 276 277 278 279 279 280 282 283 284 283 284 284 283 283 283 284 283 284 284 284
263 263 263 263 263 264 265 267 266 267 266 266 268 269 270 271 272 273 274 275 276 276 277 278 279 280 280 281 282 282 283 284 284 284 284 284 284 284 285 285 285 285 285
267 266 265 265 265 266 266 266 266 267 268 268 269 270 272 273 274 276 276 277 277 278 279 279 280 281 281 282 282 283 284 285 285 285 285 285 285 285 285 286 286 287 287
269 269 268 267 267 268 268 268 268 269 269 269 271 272 273 275 276 276 277 278 279 280 280 280 280 281 281 282 283 284 284 285 285 286 286 287 287 287 287 287 287 288 288
270 270 270 270 270 269 269 269 269 270 271 271 272 273 274 275 276 277 278 279 279 280 280 280 281 281 282 283 284 285 285 286 286 287 288 288 288 288 288 289 289 290 290
272 272 273 273 272 271 271 271 271 271 271 272 273 274 275 275 276 277 278 278 279 280 280 281 281 282 283 284 284 285 286 286 287 288 289 289 289 289 289 290 291 291 291
274 274 274 274 273 272 272 272 272 272 272 273 273 274 274 275 276 277 278 279 280 280 281 282 282 283 284 285 285 285 286 286 286 287 288 289 290 291 292 292 292 292 291
275 275 275 274 274 273 273 273 273 273 273 273 274 274 275 276 277 278 279 280 280 281 282 282 283 284 285 286 286 286 286 286 286 287 288 289 291 292 292 292 292 292 292
275 275 275 275 275 274 274 274 275 275 275 275 275 275 276 277 278 278 279 281 281 281 282 283 284 285 285 286 287 287 287 287 287 287 288 289 290 291 292 292 292 293 293
276 276 276 277 277 276 276 276 276 276 276 277 277 277 277 279 279 279 280 281 281 282 283 284 284 285 285 286 287 288 288 288 288 288 289 290 290 291 291 291 292 293 294
277 277 277 276 276 276 276 276 276 277 278 278 278 278 279 279 280 280 281 282 282 283 284 284 284 284 285 286 288 288 288 288 289 289 290 290 290 290 290 291 292 293 294
278 278 278 277 277 277 277 277 278 278 278 278 279 279 280 280 280 281 282 282 283 283 284 284 285 285 286 287 288 288 289 289 289 290 290 290 290 290 290 291 291 292 293
278 278 278 278 278 278 278 278 278 278 278 279 280 280 280 280 281 282 283 283 283 283 283 284 285 286 287 288 289 289 289 289 290 290 290 290 290 290 290 290 290 291 292
279 279 279 280 279 279 278 277 277 277 278 279 280 280 280 281 281 282 283 283 283 283 284 285 286 287 287 288 289 289 289 289 290 290 290 290 290 290 290 290 290 292 293
280 280 280 281 280 279 278 277 277 278 278 279 280 280 280 281 282 283 283 283 284 284 285 286 287 287 288 288 288 288 288 289 289 289 289 290 290 290 290 290 291 292 293
280 280 280 280 280 279 280 279 278 278 279 280 281 281 281 282 282 283 283 284 285 286 287 288 288 288 289 289 288 288 288 288 288 289 290 290 290 290 290 290 291 293 293
280 280 281 281 281 280 280 280 280 280 281 281 282 282 283 283 284 284 285 286 287 288 289 290 290 290 289 289 289 289 288 288 289 290 290 289 290 290 290 290 291 292 293
280 281 281 281 280 281 280 280 280 281 282 283 283 282 282 283 283 284 285 287 288 289 290 290 290 290 290 289 288 288 288 289 289 289 289 290 290 290 290 291 292 293 293
280 280 280 280 281 281 281 280 280 281 282 283 283 283 283 283 284 285 286 287 288 289 290 290 290 290 289 289 288 288 288 289 289 289 289 289 289 289 290 292 294 294 293
281 281 281 282 282 282 281 281 281 281 281 281 282 283 284 284 285 286 287 287 288 289 289 289 289 289 289 288 288 288 289 289 288 288 289 289 289 289 290 292 293 294 293
281 282 282 282 283 283 283 282 281 281 281 282 282 283 284 285 286 286 287 288 289 289 289 289 288 288 288 288 289 290 291 290 289 289 289 289 289 290 291 292 293 292 293
282 282 282 283 283 283 283 283 282 281 281 283 283 284 285 286 286 287 287 288 288 289 288 288 287 286 286 287 289 291 292 291 290 290 290 290 291 291 292 292 292 292 292
282 282 282 283 283 283 284 284 283 283 283 283 284 284 285 286 286 286 286 287 287 287 287 286 285 285 286 288 289 290 291 290 289 289 289 290 291 291 291 290 291 291 292
282 283 283 283 283 283 283 283 283 284 285 285 285 286 286 286 285 285 284 285 285 285 284 284 284 285 287 288 289 290 290 288 287 287 287 288 289 288 288 289 290 291 292